Powrót do katalogu

COSMOS 2251 DEB

AktywnyLEO
NORAD 33792·DEBRIS·🇷🇺 Russia

Wystrzelony Jun 16, 1993 z Plesetsk Cosmodrome

Loading…

Następne Przeloty (najbliższe 24 godziny)

TLE

ŚwieżeSource: Space-Track

Epoka: Sep 14, 2026, 07:05 UTC

1 33792U 93036AH  26257.29573645  .00000454  00000-0  45240-3 0  9999
2 33792  73.8972 265.0590 0432499 280.9487  88.2739 13.46226854861506

Śledź COSMOS 2251 DEB w czasie rzeczywistym z AllMySat

Download on the App Store